Weather History for Delta, CO

Change the Weather History Date:

Tuesday, April 2, 2013

  Actual Average (KMTJ) Record (KMTJ)
Temperature  
Mean Temperature 51 °F 46 °F  
Max Temperature 61 °F 59 °F 75 °F (2011)
Min Temperature 41 °F 32 °F 21 °F (2009)
Degree Days  
Heating Degree Days 14 20  
Month to date heating degree days 40  
Since 1 July heating degree days 5496  
Cooling Degree Days 0 0  
Month to date cooling degree days 0  
Year to date cooling degree days 0  
Growing Degree Days 1 (Base 50)    
Moisture  
Dew Point 30 °F    
Average Humidity 45    
Maximum Humidity 70    
Minimum Humidity 22    
Precipitation  
Precipitation 0.00 in 0.03 in 0.33 in (1998)
Month to date precipitation 0.06  
Year to date precipitation 2.31  
Sea Level Pressure  
Sea Level Pressure 29.95 in    
Wind  
Wind Speed 9 mph (North)    
Max Wind Speed 24 mph    
Max Gust Speed 32 mph    
Visibility 10 miles    
Events Thunderstorm    
T = Trace of Precipitation, MM = Missing Value Source: NWS Daily Summary

Daily Weather History Graph

Daily Weather History Graph

Search for Another Location

Airport:

Trip Planner

Search our weather history database for the weather conditions in past years. The results will help you decide how hot, cold, wet, or windy it might be!

Date:

Astronomy

Apr. 02, 2013 Rise Set
Actual Time 6:54 AM MDT 7:37 PM MDT
Civil Twilight 6:28 AM MDT 8:03 PM MDT
Nautical Twilight 5:56 AM MDT 8:35 PM MDT
Astronomical Twilight 5:23 AM MDT 9:08 PM MDT
Moon 1:42 AM MDT (4/2) 11:51 AM MDT (4/2)
Length of Visible Light 13h 35m
Length of Day
12h 42m
Waning Gibbous, 55% of the Moon is Illuminated
Apr 2
Waning Gibbous
Apr 2
Last Quarter
Apr 10
New
Apr 18
First Quarter
Apr 25
Full

Hourly Weather History & Observations

Time (MDT) Temp. Windchill Dew Point Humidity Pressure Visibility Wind Dir Wind Speed Gust Speed Precip Events Conditions
12:15 AM 56.8 °F - 25.0 °F 29% 29.91 in 10.0 mi West 8.1 mph - N/A   Overcast
12:35 AM 54.7 °F - 27.3 °F 35% 29.91 in 10.0 mi SSW 9.2 mph - N/A   Mostly Cloudy
12:55 AM 53.8 °F - 29.7 °F 40% 29.91 in 10.0 mi WNW 16.1 mph 21.9 mph N/A   Mostly Cloudy
1:15 AM 54.9 °F - 27.5 °F 35% 29.91 in 10.0 mi WNW 11.5 mph - N/A   Mostly Cloudy
1:35 AM 55.4 °F - 25.9 °F 32% 29.93 in 10.0 mi West 8.1 mph - N/A   Mostly Cloudy
1:55 AM 54.7 °F - 28.6 °F 37% 29.94 in 10.0 mi West 13.8 mph 20.7 mph N/A   Overcast
2:15 AM 55.2 °F - 26.1 °F 33% 29.94 in 10.0 mi WNW 8.1 mph 17.3 mph N/A   Mostly Cloudy
2:35 AM 52.9 °F - 28.9 °F 40% 29.94 in 10.0 mi SE 4.6 mph - N/A   Mostly Cloudy
2:55 AM 50.0 °F - 31.1 °F 48% 29.93 in 10.0 mi East 6.9 mph - N/A Thunderstorm Mostly Cloudy
3:15 AM 49.1 °F - 30.2 °F 48% 29.93 in 10.0 mi ENE 8.1 mph - N/A   Scattered Clouds
3:35 AM 49.3 °F - 30.2 °F 48% 29.92 in 10.0 mi NNE 13.8 mph - N/A   Scattered Clouds
3:55 AM 49.6 °F - 31.8 °F 50% 29.92 in 10.0 mi NE 13.8 mph 18.4 mph N/A   Scattered Clouds
4:15 AM 48.2 °F - 32.5 °F 55% 29.92 in 10.0 mi NNE 9.2 mph - N/A   Clear
4:35 AM 48.0 °F - 32.5 °F 55% 29.92 in 10.0 mi ENE 8.1 mph - N/A   Clear
4:55 AM 46.8 °F - 33.1 °F 59% 29.92 in 10.0 mi NE 8.1 mph - N/A   Clear
5:15 AM 46.6 °F - 33.3 °F 60% 29.92 in 10.0 mi ENE 8.1 mph - N/A   Clear
5:35 AM 47.3 °F - 32.9 °F 57% 29.92 in 10.0 mi NE 9.2 mph - N/A   Clear
5:55 AM 45.9 °F 41.7 °F 32.4 °F 59% 29.92 in 10.0 mi NNE 8.1 mph - N/A   Clear
6:15 AM 44.1 °F 39.0 °F 32.0 °F 63% 29.92 in 10.0 mi NNE 9.2 mph - N/A   Clear
6:35 AM 44.4 °F 39.0 °F 32.0 °F 62% 29.93 in 10.0 mi North 10.4 mph - N/A   Clear
6:55 AM 43.7 °F 39.1 °F 31.6 °F 63% 29.93 in 10.0 mi NNE 8.1 mph - N/A   Clear
7:15 AM 41.4 °F 39.4 °F 31.1 °F 67% 29.93 in 10.0 mi SE 3.5 mph - N/A   Clear
7:35 AM 41.2 °F 39.2 °F 30.6 °F 66% 29.95 in 10.0 mi East 3.5 mph - N/A   Clear
7:55 AM 43.0 °F - 30.9 °F 62% 29.95 in 10.0 mi Calm Calm - N/A   Clear
8:35 AM 47.8 °F - 32.0 °F 54% 29.96 in 10.0 mi Calm Calm - N/A   Clear
8:55 AM 48.2 °F - 32.0 °F 54% 29.96 in 10.0 mi Calm Calm - N/A   Clear
9:15 AM 49.8 °F - 32.2 °F 51% 29.96 in 10.0 mi Calm Calm - N/A   Clear
9:35 AM 51.3 °F - 32.0 °F 48% 29.96 in 10.0 mi Calm Calm - N/A   Clear
9:55 AM 52.3 °F - 32.0 °F 46% 29.96 in 10.0 mi Calm Calm - N/A   Clear
10:15 AM 52.9 °F - 31.3 °F 44% 29.95 in 10.0 mi Calm Calm - N/A   Clear
10:35 AM 54.3 °F - 31.1 °F 41% 29.95 in 10.0 mi Calm Calm - N/A Thunderstorm Thunderstorm
10:55 AM 56.7 °F - 29.3 °F 35% 29.94 in 10.0 mi Calm Calm - N/A   Clear
11:15 AM 57.0 °F - 27.1 °F 32% 29.94 in 10.0 mi Calm Calm - N/A   Clear
11:35 AM 58.8 °F - 27.1 °F 30% 29.93 in 10.0 mi North 4.6 mph - N/A   Clear
11:55 AM 59.5 °F - 24.3 °F 26% 29.92 in 10.0 mi South 5.8 mph - N/A Thunderstorm Thunderstorm
12:15 PM 61.0 °F - 25.7 °F 26% 29.92 in 10.0 mi West 11.5 mph 18.4 mph N/A Thunderstorm Clear
12:35 PM 61.3 °F - 25.3 °F 25% 29.92 in 10.0 mi WSW 11.5 mph - N/A   Clear
12:55 PM 61.3 °F - 24.6 °F 25% 29.91 in 10.0 mi West 12.7 mph 20.7 mph N/A   Clear
1:15 PM 61.3 °F - 23.0 °F 23% 29.91 in 10.0 mi NW 10.4 mph 16.1 mph N/A   Clear
1:35 PM 61.7 °F - 23.0 °F 23% 29.90 in 10.0 mi West 15.0 mph 19.6 mph N/A   Clear
1:55 PM 61.3 °F - 23.7 °F 24% 29.90 in 10.0 mi WNW 9.2 mph 17.3 mph N/A Thunderstorm Clear
2:15 PM 61.5 °F - 23.0 °F 23% 29.89 in 10.0 mi West 12.7 mph 19.6 mph N/A Thunderstorm Clear
2:35 PM 60.1 °F - 21.9 °F 23% 29.89 in 10.0 mi West 12.7 mph 24.2 mph N/A   Clear
2:55 PM 60.1 °F - 22.6 °F 24% 29.89 in 10.0 mi WNW 19.6 mph 26.5 mph N/A   Scattered Clouds
3:15 PM 60.1 °F - 20.7 °F 22% 29.89 in 10.0 mi West 13.8 mph 24.2 mph N/A   Clear
3:35 PM 59.7 °F - 22.6 °F 24% 29.90 in 10.0 mi West 18.4 mph 23.0 mph N/A   Clear
3:55 PM 58.5 °F - 22.6 °F 25% 29.91 in 10.0 mi West 16.1 mph 26.5 mph N/A   Scattered Clouds
4:15 PM 58.1 °F - 21.9 °F 25% 29.91 in 10.0 mi West 16.1 mph 21.9 mph N/A   Mostly Cloudy
4:35 PM 56.5 °F - 23.2 °F 28% 29.92 in 10.0 mi WSW 12.7 mph 27.6 mph N/A   Overcast
4:55 PM 57.7 °F - 22.8 °F 26% 29.92 in 10.0 mi WSW 9.2 mph - N/A   Mostly Cloudy
5:15 PM 58.6 °F - 22.6 °F 25% 29.92 in 10.0 mi SW 9.2 mph - N/A   Scattered Clouds
5:35 PM 57.9 °F - 29.7 °F 34% 29.93 in 10.0 mi South 21.9 mph 27.6 mph N/A   Scattered Clouds
5:55 PM 52.2 °F - 34.2 °F 50% 29.95 in 10.0 mi South 17.3 mph 27.6 mph N/A   Scattered Clouds
6:15 PM 50.7 °F - 34.9 °F 55% 29.95 in 10.0 mi South 24.2 mph 32.2 mph N/A   Scattered Clouds
6:35 PM 49.5 °F - 36.1 °F 60% 29.95 in 10.0 mi South 21.9 mph 31.1 mph N/A   Clear
6:55 PM 49.6 °F - 35.1 °F 57% 29.96 in 10.0 mi South 18.4 mph 26.5 mph N/A   Mostly Cloudy
7:15 PM 50.0 °F - 34.5 °F 55% 29.96 in 10.0 mi SE 6.9 mph 18.4 mph N/A   Mostly Cloudy
7:35 PM 49.3 °F - 34.7 °F 57% 29.98 in 10.0 mi ESE 6.9 mph 16.1 mph N/A   Clear
7:55 PM 48.2 °F - 33.8 °F 58% 30.00 in 10.0 mi NE 13.8 mph - N/A   Scattered Clouds
8:15 PM 47.5 °F - 34.2 °F 60% 30.01 in 10.0 mi NNE 11.5 mph - N/A   Mostly Cloudy
8:35 PM 47.5 °F - 34.0 °F 59% 30.02 in 10.0 mi NNE 9.2 mph - N/A   Overcast
8:55 PM 48.0 °F - 33.4 °F 57% 30.03 in 10.0 mi ENE 4.6 mph - N/A   Overcast
9:15 PM 47.7 °F - 33.8 °F 59% 30.04 in 10.0 mi ENE 4.6 mph - N/A   Scattered Clouds
9:35 PM 46.4 °F 45.2 °F 33.1 °F 60% 30.04 in 10.0 mi East 3.5 mph - N/A   Clear
9:55 PM 45.9 °F 44.6 °F 33.4 °F 62% 30.05 in 10.0 mi ESE 3.5 mph - N/A   Clear
10:15 PM 45.1 °F 43.7 °F 33.3 °F 63% 30.05 in 10.0 mi East 3.5 mph - N/A   Clear
10:35 PM 45.5 °F 42.5 °F 33.8 °F 64% 30.05 in 10.0 mi East 5.8 mph - N/A   Clear
10:55 PM 44.6 °F 42.2 °F 32.9 °F 64% 30.05 in 10.0 mi NE 4.6 mph - N/A   Clear
11:15 PM 43.0 °F - 33.8 °F 70% 30.06 in 10.0 mi Calm Calm - N/A   Clear
11:35 PM 43.2 °F 40.5 °F 32.5 °F 66% 30.06 in 10.0 mi East 4.6 mph - N/A   Clear
11:55 PM 43.7 °F - 32.7 °F 65% 30.06 in 10.0 mi Calm Calm - N/A   Clear